,,,PA_Meas_PMT16A,,PR_Meas_QMR101_102,,RH_Meas_QMH101,,SR_Meas_QMS101,,TA_Meas_QMH101,,GenWind,,GenWind,
date,time,status,PA,status,PR,status,RH,status,SR,status,TA,status,DirAvg,status,SpdAvg,
2009-05-05, 00:00:05,VALID,1006.03,VALID,0,VALID,93.1029,VALID,0,VALID,24.7548,VALID,57,VALID,0.280469,
2009-05-05, 00:01:05,VALID,1006.05,VALID,0,VALID,93.2783,VALID,0,VALID,24.7743,VALID,57,VALID,0.283203,
2009-05-05, 00:02:05,VALID,1006.04,VALID,0,VALID,93.4614,VALID,0,VALID,24.7919,VALID,57,VALID,0.221094,
2009-05-05, 00:03:05,VALID,1006.03,VALID,0,VALID,93.5911,VALID,0,VALID,24.8346,VALID,57,VALID,0.303906,
2009-05-05, 00:04:05,VALID,1006,VALID,0,VALID,93.6826,VALID,0,VALID,24.8308,VALID,57,VALID,0.3375,
2009-05-05, 00:05:05,VALID,1005.98,VALID,0,VALID,93.7284,VALID,0,VALID,24.8522,VALID,57,VALID,0.383984,
2009-05-05, 00:06:05,VALID,1005.96,VALID,0,VALID,93.7589,VALID,0,VALID,24.8522,VALID,57,VALID,0.345703,
2009-05-05, 00:07:05,VALID,1005.96,VALID,0,VALID,93.7895,VALID,0,VALID,24.8522,VALID,57,VALID,0.275,
2009-05-05, 00:08:05,VALID,1005.95,VALID,0,VALID,93.8429,VALID,0,VALID,24.8716,VALID,57,VALID,0.138281,
2009-05-05, 00:09:05,VALID,1005.95,VALID,0,VALID,93.9497,VALID,0,VALID,24.8911,VALID,57,VALID,0.238672,
2009-05-05, 00:10:05,VALID,1005.95,VALID,0,VALID,93.9344,VALID,0,VALID,24.9106,VALID,57,VALID,0.278516,
2009-05-05, 00:11:05,VALID,1005.94,VALID,0,VALID,93.9268,VALID,0,VALID,24.8911,VALID,57,VALID,0.442187,
2009-05-05, 00:12:05,VALID,1005.98,VALID,0,VALID,93.9497,VALID,0,VALID,24.8503,VALID,57,VALID,0.288672,
2009-05-05, 00:13:05,VALID,1005.92,VALID,0,VALID,93.881,VALID,0,VALID,24.8716,VALID,57,VALID,0.493359,
2009-05-05, 00:14:05,VALID,1005.93,VALID,0,VALID,93.8505,VALID,0,VALID,24.8327,VALID,57,VALID,0.468359,
2009-05-05, 00:15:05,VALID,1005.9,VALID,0,VALID,93.7589,VALID,0.100563,VALID,24.7743,VALID,57,VALID,0.437891,
2009-05-05, 00:16:05,VALID,1005.9,VALID,0,VALID,93.82,VALID,0,VALID,24.7335,VALID,56,VALID,0.486328,
2009-05-05, 00:17:05,VALID,1005.88,VALID,0,VALID,93.8734,VALID,0,VALID,24.7353,VALID,56,VALID,0.454688,
2009-05-05, 00:18:05,VALID,1005.86,VALID,0,VALID,93.8581,VALID,0,VALID,24.7353,VALID,55,VALID,0.45625,
2009-05-05, 00:19:05,VALID,1005.84,VALID,0,VALID,93.9268,VALID,0,VALID,24.675,VALID,50,VALID,0.409766,
2009-05-05, 00:20:05,VALID,1005.84,VALID,0,VALID,93.9115,VALID,0,VALID,24.6556,VALID,50,VALID,0.325781,
2009-05-05, 00:21:05,VALID,1005.85,VALID,0,VALID,93.9115,VALID,0,VALID,24.6574,VALID,50,VALID,0.233594,
2009-05-05, 00:22:05,VALID,1005.84,VALID,0,VALID,93.9725,VALID,0,VALID,24.6574,VALID,50,VALID,0.479297,
2009-05-05, 00:23:05,VALID,1005.84,VALID,0,VALID,93.9878,VALID,0,VALID,24.6574,VALID,50,VALID,0.352734,
2009-05-05, 00:24:05,VALID,1005.85,VALID,0,VALID,94.0031,VALID,0,VALID,24.638,VALID,50,VALID,0.495703,
2009-05-05, 00:25:05,VALID,1005.82,VALID,0,VALID,94.0336,VALID,0,VALID,24.638,VALID,50,VALID,0.334766,
2009-05-05, 00:26:05,VALID,1005.82,VALID,0,VALID,94.0565,VALID,0,VALID,24.6361,VALID,50,VALID,0.346094,
2009-05-05, 00:27:05,VALID,1005.82,VALID,0,VALID,94.1099,VALID,0,VALID,24.6166,VALID,50,VALID,0.379687,
2009-05-05, 00:28:05,VALID,1005.81,VALID,0,VALID,94.1328,VALID,0,VALID,24.6574,VALID,50,VALID,0.348437,
2009-05-05, 00:29:05,VALID,1005.8,VALID,0,VALID,94.1328,VALID,0,VALID,24.6769,VALID,50,VALID,0.343359,
2009-05-05, 00:30:05,VALID,1005.81,VALID,0,VALID,94.2396,VALID,0,VALID,24.6964,VALID,49,VALID,0.550781,
2009-05-05, 00:31:05,VALID,1005.75,VALID,0,VALID,94.2624,VALID,0,VALID,24.7159,VALID,49,VALID,0.382422,
2009-05-05, 00:32:05,VALID,1005.73,VALID,0,VALID,94.3158,VALID,0,VALID,24.7743,VALID,49,VALID,0.468359,
2009-05-05, 00:33:05,VALID,1005.7,VALID,0,VALID,94.2701,VALID,0,VALID,24.7743,VALID,49,VALID,0.342578,
2009-05-05, 00:34:05,VALID,1005.64,VALID,0,VALID,94.148,VALID,0,VALID,24.7548,VALID,49,VALID,0.498437,
2009-05-05, 00:35:05,VALID,1005.62,VALID,0,VALID,94.1022,VALID,0,VALID,24.714,VALID,49,VALID,0.283203,
2009-05-05, 00:36:05,VALID,1005.59,VALID,0,VALID,94.1251,VALID,0,VALID,24.714,VALID,49,VALID,0.122656,
2009-05-05, 00:37:05,VALID,1005.55,VALID,0,VALID,94.1938,VALID,0,VALID,24.7529,VALID,49,VALID,0.446484,
2009-05-05, 00:38:05,VALID,1005.55,VALID,0,VALID,94.1404,VALID,0,VALID,24.7743,VALID,49,VALID,0.219141,
2009-05-05, 00:39:05,VALID,1005.53,VALID,0,VALID,94.1785,VALID,0,VALID,24.7743,VALID,50,VALID,0.358984,
2009-05-05, 00:40:05,VALID,1005.54,VALID,0,VALID,94.2624,VALID,0,VALID,24.8132,VALID,50,VALID,0.357031,
2009-05-05, 00:41:05,VALID,1005.5,VALID,0,VALID,94.2548,VALID,0,VALID,24.8308,VALID,50,VALID,0.0328125,
2009-05-05, 00:42:05,VALID,1005.47,VALID,0,VALID,94.1709,VALID,0,VALID,24.8327,VALID,50,VALID,0,
2009-05-05, 00:43:05,VALID,1005.45,VALID,0,VALID,94.1709,VALID,0,VALID,24.8327,VALID,50,VALID,0,
2009-05-05, 00:44:05,VALID,1005.47,VALID,0,VALID,94.1709,VALID,0,VALID,24.8327,VALID,50,VALID,0,
2009-05-05, 00:45:05,VALID,1005.44,VALID,0,VALID,94.1709,VALID,0,VALID,24.854,VALID,50,VALID,0,
2009-05-05, 00:46:05,VALID,1005.42,VALID,0,VALID,94.2548,VALID,0,VALID,24.8911,VALID,50,VALID,0,
2009-05-05, 00:47:05,VALID,1005.42,VALID,0,VALID,94.2243,VALID,0,VALID,24.8697,VALID,50,VALID,0,
2009-05-05, 00:48:05,VALID,1005.43,VALID,0,VALID,94.1938,VALID,0,VALID,24.8911,VALID,50,VALID,0.131641,
2009-05-05, 00:49:05,VALID,1005.4,VALID,0,VALID,94.1862,VALID,0,VALID,24.8697,VALID,50,VALID,0.267188,
2009-05-05, 00:50:05,VALID,1005.38,VALID,0,VALID,94.2014,VALID,0,VALID,24.8892,VALID,50,VALID,0.0589844,
2009-05-05, 00:51:05,VALID,1005.37,VALID,0,VALID,94.1862,VALID,0,VALID,24.8892,VALID,50,VALID,0.0121094,
2009-05-05, 00:52:05,VALID,1005.34,VALID,0,VALID,94.1251,VALID,0.100563,VALID,24.9106,VALID,50,VALID,0,
2009-05-05, 00:53:05,VALID,1005.33,VALID,0,VALID,94.0946,VALID,0,VALID,24.9106,VALID,50,VALID,0,
2009-05-05, 00:54:05,VALID,1005.32,VALID,0,VALID,94.087,VALID,0,VALID,24.8911,VALID,50,VALID,0,
2009-05-05, 00:55:05,VALID,1005.31,VALID,0,VALID,94.148,VALID,0,VALID,24.8716,VALID,50,VALID,0,
2009-05-05, 00:56:05,VALID,1005.28,VALID,0,VALID,94.087,VALID,0,VALID,24.8716,VALID,50,VALID,0,
2009-05-05, 00:57:05,VALID,1005.28,VALID,0,VALID,94.1022,VALID,0,VALID,24.8911,VALID,50,VALID,0.371875,
2009-05-05, 00:58:05,VALID,1005.32,VALID,0,VALID,94.0488,VALID,0,VALID,24.8716,VALID,50,VALID,0.184766,
2009-05-05, 00:59:05,VALID,1005.3,VALID,0,VALID,94.0412,VALID,0,VALID,24.8113,VALID,50,VALID,0.352734,
2009-05-05, 01:00:05,VALID,1005.32,VALID,0,VALID,94.087,VALID,0,VALID,24.8522,VALID,50,VALID,0.183984,
2009-05-05, 01:01:05,VALID,1005.32,VALID,0,VALID,94.0946,VALID,0,VALID,24.893,VALID,50,VALID,0.382422,
2009-05-05, 01:02:05,VALID,1005.29,VALID,0,VALID,94.1938,VALID,0,VALID,24.9106,VALID,51,VALID,0.140625,
2009-05-05, 01:03:05,VALID,1005.26,VALID,0,VALID,94.1785,VALID,0,VALID,24.9106,VALID,57,VALID,0.410547,
2009-05-05, 01:04:05,VALID,1005.25,VALID,0,VALID,94.1251,VALID,0,VALID,24.8892,VALID,57,VALID,0.296875,
2009-05-05, 01:05:05,VALID,1005.25,VALID,0,VALID,94.1633,VALID,0,VALID,24.9087,VALID,57,VALID,0.313281,
2009-05-05, 01:06:05,VALID,1005.2,VALID,0,VALID,94.1938,VALID,0.100563,VALID,24.9282,VALID,57,VALID,0.322656,
2009-05-05, 01:07:05,VALID,1005.21,VALID,0,VALID,94.1556,VALID,0,VALID,24.9495,VALID,57,VALID,0.237891,
2009-05-05, 01:08:05,VALID,1005.17,VALID,0,VALID,94.087,VALID,0,VALID,24.9282,VALID,57,VALID,0.235547,
2009-05-05, 01:09:05,VALID,1005.17,VALID,0,VALID,94.0336,VALID,0,VALID,24.9087,VALID,57,VALID,0.401953,
2009-05-05, 01:10:05,VALID,1005.13,VALID,0,VALID,94.0183,VALID,0,VALID,24.9087,VALID,57,VALID,0.272266,
2009-05-05, 01:11:05,VALID,1005.13,VALID,0,VALID,94.0259,VALID,0,VALID,24.93,VALID,57,VALID,0.353516,
2009-05-05, 01:12:05,VALID,1005.1,VALID,0,VALID,94.0183,VALID,0,VALID,24.9087,VALID,57,VALID,0.392188,
2009-05-05, 01:13:05,VALID,1005.1,VALID,0,VALID,93.9649,VALID,0,VALID,24.8892,VALID,57,VALID,0,
2009-05-05, 01:14:05,VALID,1005.09,VALID,0,VALID,93.9268,VALID,0,VALID,24.8892,VALID,57,VALID,0,
2009-05-05, 01:15:05,VALID,1005.06,VALID,0,VALID,93.9725,VALID,0.100563,VALID,24.9106,VALID,57,VALID,0,
2009-05-05, 01:16:05,VALID,1005.01,VALID,0,VALID,93.9344,VALID,0,VALID,24.9106,VALID,57,VALID,0,
2009-05-05, 01:17:05,VALID,1005.04,VALID,0,VALID,93.9497,VALID,0,VALID,24.9106,VALID,57,VALID,0,
2009-05-05, 01:18:05,VALID,1005.01,VALID,0,VALID,94.0031,VALID,0,VALID,24.9087,VALID,57,VALID,0,
2009-05-05, 01:19:05,VALID,1004.98,VALID,0,VALID,93.9725,VALID,0,VALID,24.9282,VALID,57,VALID,0,
2009-05-05, 01:20:05,VALID,1004.96,VALID,0,VALID,93.942,VALID,0.100563,VALID,24.969,VALID,57,VALID,0.317187,
2009-05-05, 01:21:05,VALID,1004.98,VALID,0,VALID,93.8581,VALID,0,VALID,24.9671,VALID,57,VALID,0.193359,
2009-05-05, 01:22:05,VALID,1004.96,VALID,0,VALID,93.7513,VALID,0,VALID,24.969,VALID,57,VALID,0.247656,
2009-05-05, 01:23:05,VALID,1004.93,VALID,0,VALID,93.7513,VALID,0,VALID,24.9866,VALID,57,VALID,0.185547,
2009-05-05, 01:24:05,VALID,1004.93,VALID,0,VALID,93.7513,VALID,0,VALID,24.9847,VALID,57,VALID,0.348828,
2009-05-05, 01:25:05,VALID,1004.9,VALID,0,VALID,93.675,VALID,0,VALID,25.0274,VALID,57,VALID,0.341016,
2009-05-05, 01:26:05,VALID,1004.88,VALID,0,VALID,93.6292,VALID,0,VALID,25.0469,VALID,57,VALID,0.122266,
2009-05-05, 01:27:05,VALID,1004.87,VALID,0,VALID,93.7818,VALID,0,VALID,25.0839,VALID,9,VALID,0.324219,
2009-05-05, 01:28:05,VALID,1004.9,VALID,0,VALID,93.6445,VALID,0.100563,VALID,25.1229,VALID,9,VALID,0.273438,
2009-05-05, 01:29:05,VALID,1004.87,VALID,0,VALID,93.6216,VALID,0,VALID,25.1832,VALID,32,VALID,0.831641,
2009-05-05, 01:30:05,VALID,1004.88,VALID,0,VALID,93.4614,VALID,0,VALID,25.2786,VALID,31,VALID,0.404297,
2009-05-05, 01:31:05,VALID,1004.89,VALID,0,VALID,93.1868,VALID,0.100563,VALID,25.3779,VALID,24,VALID,0.551562,
2009-05-05, 01:32:05,VALID,1004.91,VALID,0,VALID,92.9121,VALID,0.100563,VALID,25.4149,VALID,30,VALID,0.6125,
2009-05-05, 01:33:05,VALID,1004.89,VALID,0,VALID,92.607,VALID,0,VALID,25.5123,VALID,16,VALID,0.616016,
2009-05-05, 01:34:05,VALID,1004.91,VALID,0,VALID,92.2484,VALID,0.100563,VALID,25.5902,VALID,30,VALID,0.454688,
2009-05-05, 01:35:05,VALID,1004.89,VALID,0,VALID,91.8517,VALID,0,VALID,25.6876,VALID,73,VALID,0.148438,
2009-05-05, 01:36:05,VALID,1004.87,VALID,0,VALID,91.4321,VALID,0,VALID,25.748,VALID,33,VALID,0.271875,
2009-05-05, 01:37:05,VALID,1004.85,VALID,0,VALID,91.1193,VALID,0,VALID,25.7265,VALID,33,VALID,0.182812,
2009-05-05, 01:38:05,VALID,1004.85,VALID,0,VALID,90.8676,VALID,0,VALID,25.7265,VALID,33,VALID,0.125,
2009-05-05, 01:39:05,VALID,1004.87,VALID,0,VALID,90.7379,VALID,0,VALID,25.7265,VALID,33,VALID,0.188672,
2009-05-05, 01:40:05,VALID,1004.85,VALID,0,VALID,90.5319,VALID,0,VALID,25.7265,VALID,33,VALID,0.200391,
2009-05-05, 01:41:05,VALID,1004.83,VALID,0,VALID,90.4022,VALID,0,VALID,25.7071,VALID,33,VALID,0.253906,
2009-05-05, 01:42:05,VALID,1004.81,VALID,0,VALID,90.3488,VALID,0,VALID,25.709,VALID,33,VALID,0.266406,
2009-05-05, 01:43:05,VALID,1004.82,VALID,0,VALID,90.2115,VALID,0,VALID,25.6915,VALID,34,VALID,0.419922,
2009-05-05, 01:44:05,VALID,1004.82,VALID,0,VALID,90.1886,VALID,0,VALID,25.6506,VALID,64,VALID,0.387109,
2009-05-05, 01:45:05,VALID,1004.84,VALID,0,VALID,90.0971,VALID,0,VALID,25.6915,VALID,66,VALID,0.316797,
2009-05-05, 01:46:05,VALID,1004.79,VALID,0,VALID,89.8453,VALID,0,VALID,25.6506,VALID,66,VALID,0.248047,
2009-05-05, 01:47:05,VALID,1004.8,VALID,0,VALID,89.853,VALID,0,VALID,25.6116,VALID,66,VALID,0.253906,
2009-05-05, 01:48:05,VALID,1004.83,VALID,0,VALID,89.914,VALID,0,VALID,25.5921,VALID,66,VALID,0.1125,
2009-05-05, 01:49:05,VALID,1004.81,VALID,0,VALID,89.914,VALID,0,VALID,25.5551,VALID,66,VALID,0.0449219,
2009-05-05, 01:50:05,VALID,1004.82,VALID,0,VALID,90.0284,VALID,0,VALID,25.5357,VALID,68,VALID,0.366016,
2009-05-05, 01:51:05,VALID,1004.79,VALID,0,VALID,90.0742,VALID,0,VALID,25.5532,VALID,94,VALID,0.611328,
2009-05-05, 01:52:05,VALID,1004.78,VALID,0,VALID,90.0437,VALID,0,VALID,25.5532,VALID,94,VALID,0.46875,
2009-05-05, 01:53:04,VALID,1004.75,VALID,0,VALID,90.036,VALID,0,VALID,25.5532,VALID,94,VALID,0.430859,
2009-05-05, 01:54:04,VALID,1004.75,VALID,0,VALID,89.9979,VALID,0,VALID,25.5357,VALID,94,VALID,0.26875,
2009-05-05, 01:55:04,VALID,1004.71,VALID,0,VALID,89.975,VALID,0,VALID,25.4967,VALID,94,VALID,0.133203,
2009-05-05, 01:56:04,VALID,1004.7,VALID,0,VALID,90.1657,VALID,0,VALID,25.4363,VALID,94,VALID,0.423047,
2009-05-05, 01:57:04,VALID,1004.71,VALID,0,VALID,90.2497,VALID,0,VALID,25.3974,VALID,94,VALID,0.0953125,
2009-05-05, 01:58:04,VALID,1004.72,VALID,0,VALID,90.3641,VALID,0,VALID,25.3584,VALID,94,VALID,0,
2009-05-05, 01:59:04,VALID,1004.69,VALID,0,VALID,90.4556,VALID,0,VALID,25.3195,VALID,94,VALID,0,
2009-05-05, 02:00:04,VALID,1004.69,VALID,0,VALID,90.4633,VALID,0,VALID,25.2592,VALID,94,VALID,0,
2009-05-05, 02:01:04,VALID,1004.7,VALID,0,VALID,90.6692,VALID,0.100563,VALID,25.2202,VALID,28,VALID,0.311719,
2009-05-05, 02:02:04,VALID,1004.67,VALID,0,VALID,90.5777,VALID,0,VALID,25.1832,VALID,28,VALID,0.137891,
2009-05-05, 02:03:04,VALID,1004.68,VALID,0,VALID,90.7303,VALID,0,VALID,25.1423,VALID,33,VALID,0.366016,
2009-05-05, 02:04:04,VALID,1004.64,VALID,0,VALID,90.8066,VALID,0,VALID,25.1248,VALID,34,VALID,0.153516,
2009-05-05, 02:05:04,VALID,1004.68,VALID,0,VALID,90.9439,VALID,0,VALID,25.1053,VALID,34,VALID,0.279687,
2009-05-05, 02:06:04,VALID,1004.68,VALID,0,VALID,90.9668,VALID,0,VALID,25.045,VALID,79,VALID,0.524219,
2009-05-05, 02:07:04,VALID,1004.65,VALID,0,VALID,91.2262,VALID,0,VALID,25.045,VALID,69,VALID,0.337891,
2009-05-05, 02:08:04,VALID,1004.68,VALID,0,VALID,91.3101,VALID,0,VALID,25.0663,VALID,69,VALID,0.191016,
2009-05-05, 02:09:04,VALID,1004.68,VALID,0,VALID,91.2338,VALID,0,VALID,25.045,VALID,69,VALID,0.270703,
2009-05-05, 02:10:04,VALID,1004.7,VALID,0,VALID,91.2033,VALID,0,VALID,25.0274,VALID,69,VALID,0.230078,
2009-05-05, 02:11:04,VALID,1004.7,VALID,0,VALID,91.3406,VALID,0.100563,VALID,25.0274,VALID,65,VALID,0.490625,
2009-05-05, 02:12:04,VALID,1004.67,VALID,0,VALID,91.4169,VALID,0,VALID,24.9866,VALID,60,VALID,0.383594,
2009-05-05, 02:13:04,VALID,1004.69,VALID,0,VALID,91.4703,VALID,0,VALID,24.9476,VALID,60,VALID,0.372266,
2009-05-05, 02:14:04,VALID,1004.7,VALID,0,VALID,91.6457,VALID,0,VALID,24.969,VALID,60,VALID,0.174609,
2009-05-05, 02:15:04,VALID,1004.67,VALID,0,VALID,91.7144,VALID,0.100563,VALID,24.9087,VALID,60,VALID,0.335156,
2009-05-05, 02:16:04,VALID,1004.67,VALID,0,VALID,91.7373,VALID,0,VALID,24.8892,VALID,60,VALID,0.190234,
2009-05-05, 02:17:04,VALID,1004.71,VALID,0,VALID,91.9585,VALID,0.100563,VALID,24.9106,VALID,60,VALID,0.506641,
2009-05-05, 02:18:04,VALID,1004.7,VALID,0,VALID,92.0119,VALID,0,VALID,24.8503,VALID,60,VALID,0.296875,
2009-05-05, 02:19:04,VALID,1004.69,VALID,0,VALID,92.1416,VALID,0,VALID,24.8308,VALID,60,VALID,0.307422,
2009-05-05, 02:20:04,VALID,1004.72,VALID,0,VALID,92.1111,VALID,0.100563,VALID,24.7919,VALID,60,VALID,0.386719,
2009-05-05, 02:21:04,VALID,1004.7,VALID,0,VALID,92.0653,VALID,0,VALID,24.7335,VALID,60,VALID,0.525391,
2009-05-05, 02:22:04,VALID,1004.69,VALID,0,VALID,92.1569,VALID,0.100563,VALID,24.6537,VALID,55,VALID,0.553125,
2009-05-05, 02:23:04,VALID,1004.7,VALID,0,VALID,92.3247,VALID,0.100563,VALID,24.6148,VALID,54,VALID,0.488672,
2009-05-05, 02:24:04,VALID,1004.67,VALID,0,VALID,92.5231,VALID,0,VALID,24.5972,VALID,21,VALID,0.486719,
2009-05-05, 02:25:04,VALID,1004.65,VALID,0,VALID,92.7367,VALID,0.100563,VALID,24.5972,VALID,21,VALID,0.340234,
2009-05-05, 02:26:04,VALID,1004.66,VALID,0,VALID,92.7977,VALID,0.100563,VALID,24.5582,VALID,21,VALID,0.334375,
2009-05-05, 02:27:04,VALID,1004.66,VALID,0,VALID,92.8816,VALID,0,VALID,24.5193,VALID,21,VALID,0.419922,
2009-05-05, 02:28:04,VALID,1004.64,VALID,0,VALID,93.3622,VALID,0,VALID,24.5972,VALID,45,VALID,0.615234,
2009-05-05, 02:29:04,VALID,1004.66,VALID,0,VALID,93.3088,VALID,0,VALID,24.599,VALID,45,VALID,0.096875,
2009-05-05, 02:30:04,VALID,1004.65,VALID,0,VALID,93.2783,VALID,0,VALID,24.5796,VALID,45,VALID,0.194922,
2009-05-05, 02:31:04,VALID,1004.67,VALID,0,VALID,93.2783,VALID,0,VALID,24.5796,VALID,45,VALID,0.349609,
2009-05-05, 02:32:04,VALID,1004.66,VALID,0,VALID,93.3851,VALID,0,VALID,24.599,VALID,45,VALID,0.146484,
2009-05-05, 02:33:04,VALID,1004.68,VALID,0,VALID,93.5224,VALID,0,VALID,24.6185,VALID,45,VALID,0.302734,
2009-05-05, 02:34:04,VALID,1004.67,VALID,0,VALID,93.5835,VALID,0,VALID,24.6574,VALID,45,VALID,0.459375,
2009-05-05, 02:35:04,VALID,1004.68,VALID,0,VALID,93.5301,VALID,0,VALID,24.638,VALID,45,VALID,0.436328,
2009-05-05, 02:36:04,VALID,1004.68,VALID,0,VALID,93.4996,VALID,0,VALID,24.6185,VALID,45,VALID,0.362109,
2009-05-05, 02:37:04,VALID,1004.7,VALID,0,VALID,93.469,VALID,0,VALID,24.5796,VALID,45,VALID,0.514063,
2009-05-05, 02:38:04,VALID,1004.68,VALID,0,VALID,93.5377,VALID,0,VALID,24.599,VALID,45,VALID,0.660937,
2009-05-05, 02:39:04,VALID,1004.66,VALID,0,VALID,93.4233,VALID,0,VALID,24.5406,VALID,45,VALID,0.555469,
2009-05-05, 02:40:04,VALID,1004.65,VALID,0,VALID,93.3622,VALID,0,VALID,24.4822,VALID,45,VALID,0.350781,
2009-05-05, 02:41:04,VALID,1004.64,VALID,0,VALID,93.5682,VALID,0,VALID,24.4822,VALID,45,VALID,0.182812,
2009-05-05, 02:42:04,VALID,1004.61,VALID,0,VALID,93.6064,VALID,0.100563,VALID,24.4804,VALID,45,VALID,0.225781,
2009-05-05, 02:43:04,VALID,1004.64,VALID,0,VALID,93.7971,VALID,0,VALID,24.5193,VALID,47,VALID,0.445703,
2009-05-05, 02:44:04,VALID,1004.62,VALID,0,VALID,94.0259,VALID,0.100563,VALID,24.5972,VALID,64,VALID,0.460938,
2009-05-05, 02:45:04,VALID,1004.63,VALID,0,VALID,93.9802,VALID,0,VALID,24.638,VALID,63,VALID,0.5125,
2009-05-05, 02:46:04,VALID,1004.63,VALID,0,VALID,93.8963,VALID,0,VALID,24.6166,VALID,59,VALID,0.394531,
2009-05-05, 02:47:04,VALID,1004.63,VALID,0,VALID,93.8581,VALID,0,VALID,24.6185,VALID,59,VALID,0.26875,
2009-05-05, 02:48:04,VALID,1004.59,VALID,0,VALID,93.8886,VALID,0.100563,VALID,24.6166,VALID,59,VALID,0.507031,
2009-05-05, 02:49:04,VALID,1004.6,VALID,0,VALID,93.82,VALID,0,VALID,24.6166,VALID,27,VALID,0.735937,
2009-05-05, 02:50:04,VALID,1004.61,VALID,0,VALID,93.8963,VALID,0.100563,VALID,24.5953,VALID,27,VALID,0.325781,
2009-05-05, 02:51:04,VALID,1004.59,VALID,0,VALID,93.8886,VALID,0.100563,VALID,24.6556,VALID,27,VALID,0.100391,
2009-05-05, 02:52:04,VALID,1004.57,VALID,0,VALID,93.9191,VALID,0.100563,VALID,24.6945,VALID,27,VALID,0.248437,
2009-05-05, 02:53:04,VALID,1004.54,VALID,0,VALID,94.0259,VALID,0,VALID,24.7724,VALID,50,VALID,0.546484,
2009-05-05, 02:54:04,VALID,1004.57,VALID,0,VALID,93.9649,VALID,0.100563,VALID,24.8113,VALID,69,VALID,0.539063,
2009-05-05, 02:55:04,VALID,1004.55,VALID,0,VALID,93.8657,VALID,0,VALID,24.8503,VALID,80,VALID,0.573828,
2009-05-05, 02:56:04,VALID,1004.52,VALID,0,VALID,93.8123,VALID,0.100563,VALID,24.8697,VALID,80,VALID,0.215234,
2009-05-05, 02:57:04,VALID,1004.51,VALID,0,VALID,93.675,VALID,0,VALID,24.8911,VALID,80,VALID,0.112891,
2009-05-05, 02:58:04,VALID,1004.52,VALID,0,VALID,93.7437,VALID,0,VALID,24.9514,VALID,72,VALID,0.334375,
2009-05-05, 02:59:04,VALID,1004.56,VALID,0,VALID,93.6979,VALID,0,VALID,24.9885,VALID,72,VALID,0.252734,
2009-05-05, 03:00:04,VALID,1004.57,VALID,0,VALID,93.614,VALID,0,VALID,25.0858,VALID,73,VALID,0.676953,
2009-05-05, 03:01:04,VALID,1004.55,VALID,0,VALID,93.4156,VALID,0,VALID,25.1442,VALID,73,VALID,0.220703,
2009-05-05, 03:02:04,VALID,1004.57,VALID,0,VALID,92.9503,VALID,0,VALID,25.1442,VALID,73,VALID,0.194141,
2009-05-05, 03:03:04,VALID,1004.58,VALID,0,VALID,92.6375,VALID,0,VALID,25.1461,VALID,69,VALID,0.362891,
2009-05-05, 03:04:04,VALID,1004.58,VALID,0,VALID,92.3781,VALID,0,VALID,25.0858,VALID,68,VALID,0.360938,
2009-05-05, 03:05:04,VALID,1004.59,VALID,0,VALID,92.0958,VALID,0,VALID,25.0079,VALID,68,VALID,0.330469,
2009-05-05, 03:06:04,VALID,1004.58,VALID,0,VALID,92.0577,VALID,0,VALID,24.9904,VALID,68,VALID,0.452734,
2009-05-05, 03:07:04,VALID,1004.59,VALID,0,VALID,92.3247,VALID,0,VALID,24.9514,VALID,68,VALID,0.271094,
2009-05-05, 03:08:04,VALID,1004.58,VALID,0,VALID,92.4925,VALID,0,VALID,24.93,VALID,68,VALID,0.189453,
2009-05-05, 03:09:04,VALID,1004.57,VALID,0,VALID,92.6146,VALID,0,VALID,24.9495,VALID,68,VALID,0.252734,
2009-05-05, 03:10:04,VALID,1004.57,VALID,0,VALID,92.8587,VALID,0,VALID,25.0079,VALID,43,VALID,0.541797,
2009-05-05, 03:11:04,VALID,1004.6,VALID,0,VALID,92.5993,VALID,0,VALID,25.0079,VALID,35,VALID,0.397266,
2009-05-05, 03:12:04,VALID,1004.58,VALID,0,VALID,92.5383,VALID,0,VALID,24.9885,VALID,11,VALID,0.748047,
2009-05-05, 03:13:04,VALID,1004.57,VALID,0,VALID,92.7138,VALID,0,VALID,25.1072,VALID,10,VALID,0.405859,
2009-05-05, 03:14:04,VALID,1004.58,VALID,0,VALID,92.3705,VALID,0,VALID,25.1072,VALID,11,VALID,0.471875,
2009-05-05, 03:15:04,VALID,1004.57,VALID,0,VALID,92.4544,VALID,0,VALID,25.1442,VALID,18,VALID,0.359766,
2009-05-05, 03:16:04,VALID,1004.56,VALID,0,VALID,92.3247,VALID,0,VALID,25.2221,VALID,35,VALID,0.457031,
2009-05-05, 03:17:04,VALID,1004.56,VALID,0,VALID,92.1492,VALID,0,VALID,25.3,VALID,45,VALID,0.441406,
2009-05-05, 03:18:04,VALID,1004.57,VALID,0,VALID,91.7754,VALID,0,VALID,25.3195,VALID,42,VALID,0.30625,
2009-05-05, 03:19:04,VALID,1004.58,VALID,0,VALID,91.6839,VALID,0,VALID,25.339,VALID,42,VALID,0.186328,
2009-05-05, 03:20:04,VALID,1004.57,VALID,0,VALID,91.5542,VALID,0,VALID,25.3584,VALID,42,VALID,0.00820312,
2009-05-05, 03:21:04,VALID,1004.57,VALID,0,VALID,91.5618,VALID,0,VALID,25.3974,VALID,49,VALID,0.393359,
2009-05-05, 03:22:04,VALID,1004.57,VALID,0,VALID,91.455,VALID,0,VALID,25.3974,VALID,49,VALID,0.341406,
2009-05-05, 03:23:04,VALID,1004.58,VALID,0,VALID,91.2262,VALID,0,VALID,25.4383,VALID,49,VALID,0.254687,
2009-05-05, 03:24:04,VALID,1004.57,VALID,0,VALID,91.1422,VALID,0,VALID,25.4558,VALID,49,VALID,0.487109,
2009-05-05, 03:25:04,VALID,1004.58,VALID,0,VALID,90.6692,VALID,0,VALID,25.4363,VALID,49,VALID,0.323438,
2009-05-05, 03:26:04,VALID,1004.58,VALID,0,VALID,90.448,VALID,0,VALID,25.4383,VALID,49,VALID,0,
2009-05-05, 03:27:04,VALID,1004.57,VALID,0,VALID,90.4785,VALID,0.100563,VALID,25.337,VALID,49,VALID,0,
2009-05-05, 03:28:04,VALID,1004.52,VALID,0,VALID,90.3488,VALID,0.100563,VALID,25.2202,VALID,49,VALID,0.342578,
2009-05-05, 03:29:04,VALID,1004.52,VALID,0,VALID,90.5777,VALID,0.100563,VALID,25.1637,VALID,49,VALID,0.325391,
2009-05-05, 03:30:04,VALID,1004.51,VALID,0,VALID,90.9134,VALID,0.100563,VALID,25.0644,VALID,49,VALID,0.372266,
2009-05-05, 03:31:04,VALID,1004.51,VALID,0,VALID,91.3177,VALID,0.100563,VALID,25.045,VALID,47,VALID,0.439063,
2009-05-05, 03:32:04,VALID,1004.53,VALID,0,VALID,91.3864,VALID,0.100563,VALID,25.0079,VALID,47,VALID,0.259766,
2009-05-05, 03:33:04,VALID,1004.51,VALID,0,VALID,91.5618,VALID,0,VALID,24.9495,VALID,47,VALID,0.499609,
2009-05-05, 03:34:04,VALID,1004.52,VALID,0,VALID,91.9509,VALID,0.100563,VALID,24.93,VALID,40,VALID,0.710547,
2009-05-05, 03:35:04,VALID,1004.52,VALID,0,VALID,92.0348,VALID,0,VALID,24.8697,VALID,40,VALID,0.489844,
2009-05-05, 03:36:04,VALID,1004.54,VALID,0,VALID,92.1721,VALID,0.100563,VALID,24.8697,VALID,40,VALID,0.355469,
2009-05-05, 03:37:04,VALID,1004.49,VALID,0,VALID,92.2561,VALID,0.100563,VALID,24.8716,VALID,40,VALID,0.575,
2009-05-05, 03:38:04,VALID,1004.49,VALID,0,VALID,92.462,VALID,0,VALID,24.8503,VALID,40,VALID,0.31875,
2009-05-05, 03:39:04,VALID,1004.49,VALID,0,VALID,92.546,VALID,0.100563,VALID,24.8911,VALID,40,VALID,0.517187,
2009-05-05, 03:40:04,VALID,1004.48,VALID,0,VALID,92.5307,VALID,0.100563,VALID,24.8308,VALID,40,VALID,0.148047,
2009-05-05, 03:41:04,VALID,1004.48,VALID,0,VALID,92.6222,VALID,0,VALID,24.8503,VALID,40,VALID,0.260156,
2009-05-05, 03:42:04,VALID,1004.5,VALID,0,VALID,92.7672,VALID,0,VALID,24.8697,VALID,40,VALID,0.289063,
2009-05-05, 03:43:04,VALID,1004.45,VALID,0,VALID,92.8892,VALID,0.100563,VALID,24.8892,VALID,68,VALID,0.582031,
2009-05-05, 03:44:04,VALID,1004.4,VALID,0,VALID,92.8892,VALID,0.100563,VALID,24.9282,VALID,68,VALID,0.253125,
2009-05-05, 03:45:04,VALID,1004.42,VALID,0,VALID,92.8892,VALID,0.100563,VALID,24.9282,VALID,68,VALID,0.291406,